Location: *
(33.8649°S, 62.1526°E)
Time: 13:04:38
(UTC+00:00)

CENTAUR R/B - Pass Details

Date: 17 January 2021
Orbit: 742 x 1446 km, 63.5° (Epoch: 01 March)

Event Time Altitude Azimuth Distance (km) Brightness Sun altitude
Rises 23:25:39 0° 201° (SSW) 3,502 5.7 -17.1°
Reaches altitude 10° 23:28:43 10° 188° (S) 2,463 5.0 -16.6°
Maximum altitude 23:33:17 25° 132° (SE) 1,529 4.5 -15.9°
Drops below altitude 10° 23:37:32 10° 76° (ENE) 2,275 5.0 -15.2°
Sets 23:40:13 0° 62° (ENE) 3,179 5.5 -14.8°
